Terminal Aerodrome Forecast
Issued by NWS Billings, MT

Home | Current Version | Previous Version | Text Only | Print | Product List | Glossary On
Versions: 1 2 3 4 5 6 7 8 9 10 11 12 13 14 15 16 17 18 19 20
000
FTUS45 KBYZ 290122 AAA
TAFMLS
TAF AMD
KMLS 290122Z 2901/2924 09007KT P6SM FEW080 SCT100
     FM291200 VRB05KT P6SM FEW100=

USA.gov is the U.S. government's official web portal to all federal, state and local government web resources and services.